UAL1164 KSFO-KLAX

Flight info

Callsign UAL1164
Flight time 0h 54m
Altitude 33000
Route WESLA5 SUSEY EBAYE BURGL IRNMN2
Aircraft B738/M-SDE2E3FGHIRWXY/LB1

Departure

Time 2026-04-22 01:25
Airport San Francisco International Airport (KSFO)

Arrival

Time 2026-04-22 02:19
Airport Los Angeles International Airport (KLAX)
Time Latitude Longitude Altitude Speed Heading
2026-04-22 01:07 37.61922 -122.38359 3 ft 0 kts 291°
2026-04-22 01:15 37.61921 -122.38354 21 ft 3 kts 291°
2026-04-22 01:15 37.61909 -122.38323 25 ft 4 kts 307°
2026-04-22 01:16 37.61891 -122.38305 22 ft 4 kts 356°
2026-04-22 01:16 37.61878 -122.38308 22 ft 1 kts 27°
2026-04-22 01:16 37.61876 -122.38309 23 ft 0 kts 27°
2026-04-22 01:18 37.61877 -122.38308 22 ft 1 kts 27°
2026-04-22 01:18 37.61895 -122.38296 22 ft 5 kts 28°
2026-04-22 01:19 37.61933 -122.38271 23 ft 6 kts 27°
2026-04-22 01:19 37.61963 -122.38228 21 ft 7 kts 76°
2026-04-22 01:19 37.61949 -122.38166 23 ft 8 kts 116°
2026-04-22 01:19 37.61917 -122.38087 22 ft 11 kts 117°
2026-04-22 01:20 37.61880 -122.37998 23 ft 11 kts 117°
2026-04-22 01:20 37.61844 -122.37911 22 ft 11 kts 117°
2026-04-22 01:20 37.61812 -122.37816 21 ft 14 kts 112°
2026-04-22 01:20 37.61771 -122.37679 23 ft 19 kts 110°
2026-04-22 01:21 37.61721 -122.37521 21 ft 20 kts 113°
2026-04-22 01:21 37.61660 -122.37368 21 ft 19 kts 117°
2026-04-22 01:21 37.61597 -122.37224 22 ft 19 kts 117°
2026-04-22 01:21 37.61539 -122.37081 22 ft 18 kts 118°
2026-04-22 01:22 37.61479 -122.36946 21 ft 17 kts 124°
2026-04-22 01:22 37.61398 -122.36831 21 ft 18 kts 131°
2026-04-22 01:22 37.61330 -122.36697 23 ft 18 kts 117°
2026-04-22 01:22 37.61272 -122.36559 21 ft 17 kts 117°
2026-04-22 01:23 37.61215 -122.36423 21 ft 19 kts 118°
2026-04-22 01:23 37.61145 -122.36256 21 ft 25 kts 117°
2026-04-22 01:23 37.61066 -122.36071 21 ft 23 kts 120°
2026-04-22 01:23 37.61093 -122.35908 23 ft 14 kts 32°
2026-04-22 01:24 37.61184 -122.35891 21 ft 14 kts 325°
2026-04-22 01:24 37.61279 -122.36093 21 ft 58 kts 298°
2026-04-22 01:24 37.61588 -122.36828 23 ft 129 kts 297°
2026-04-22 01:24 37.62061 -122.37960 462 ft 149 kts 293°
2026-04-22 01:25 37.62539 -122.39120 1349 ft 151 kts 295°
2026-04-22 01:25 37.63040 -122.40303 2101 ft 161 kts 294°
2026-04-22 01:25 37.63619 -122.41674 2442 ft 193 kts 295°
2026-04-22 01:25 37.64312 -122.43253 2690 ft 215 kts 296°
2026-04-22 01:26 37.65062 -122.44939 3210 ft 225 kts 297°
2026-04-22 01:26 37.65832 -122.46675 3888 ft 228 kts 297°
2026-04-22 01:26 37.66588 -122.48424 4608 ft 235 kts 291°
2026-04-22 01:26 37.66812 -122.50527 5243 ft 247 kts 261°
2026-04-22 01:27 37.66130 -122.52497 6091 ft 253 kts 232°
2026-04-22 01:27 37.64710 -122.53852 6954 ft 263 kts 204°
2026-04-22 01:27 37.62886 -122.54131 7909 ft 271 kts 175°
2026-04-22 01:27 37.61046 -122.53487 8779 ft 278 kts 163°
2026-04-22 01:28 37.59231 -122.52561 9630 ft 283 kts 161°
2026-04-22 01:28 37.57403 -122.51594 10400 ft 290 kts 161°
2026-04-22 01:28 37.55451 -122.50602 10661 ft 315 kts 162°
2026-04-22 01:28 37.53361 -122.49576 11211 ft 326 kts 162°
2026-04-22 01:29 37.51226 -122.48543 12003 ft 330 kts 162°
2026-04-22 01:29 37.49105 -122.47364 12842 ft 338 kts 151°
2026-04-22 01:29 37.47323 -122.45377 13699 ft 346 kts 137°
2026-04-22 01:29 37.45676 -122.43151 14476 ft 351 kts 136°
2026-04-22 01:30 37.44012 -122.40852 15227 ft 357 kts 135°
2026-04-22 01:30 37.42334 -122.38525 16010 ft 361 kts 135°
2026-04-22 01:30 37.40632 -122.36175 16801 ft 366 kts 136°
2026-04-22 01:30 37.38903 -122.33801 17589 ft 371 kts 136°
2026-04-22 01:31 37.37169 -122.31430 18348 ft 376 kts 136°
2026-04-22 01:31 37.35379 -122.28991 18964 ft 383 kts 136°
2026-04-22 01:31 37.33549 -122.26507 19437 ft 393 kts 137°
2026-04-22 01:31 37.31674 -122.23967 19981 ft 401 kts 137°
2026-04-22 01:32 37.29759 -122.21376 20521 ft 408 kts 137°
2026-04-22 01:32 37.27808 -122.18738 21057 ft 416 kts 138°
2026-04-22 01:32 37.25820 -122.16055 21564 ft 424 kts 138°
2026-04-22 01:32 37.23788 -122.13314 22065 ft 432 kts 139°
2026-04-22 01:33 37.21722 -122.10526 22559 ft 440 kts 139°
2026-04-22 01:33 37.19617 -122.07688 23082 ft 448 kts 139°
2026-04-22 01:33 37.17471 -122.04798 23585 ft 455 kts 140°
2026-04-22 01:33 37.15301 -122.01879 24009 ft 462 kts 140°
2026-04-22 01:34 37.13096 -121.98914 24517 ft 465 kts 140°
2026-04-22 01:34 37.10888 -121.95945 25033 ft 469 kts 140°
2026-04-22 01:34 37.08651 -121.92941 25476 ft 473 kts 140°
2026-04-22 01:34 37.06394 -121.89916 25879 ft 478 kts 141°
2026-04-22 01:35 37.04109 -121.86852 26313 ft 483 kts 140°
2026-04-22 01:35 37.01804 -121.83767 26789 ft 486 kts 141°
2026-04-22 01:35 36.99492 -121.80677 27178 ft 490 kts 141°
2026-04-22 01:35 36.97154 -121.77556 27596 ft 493 kts 141°
2026-04-22 01:36 36.94797 -121.74411 28011 ft 497 kts 141°
2026-04-22 01:36 36.92426 -121.71251 28418 ft 500 kts 141°
2026-04-22 01:36 36.90034 -121.68066 28822 ft 503 kts 141°
2026-04-22 01:36 36.87632 -121.64870 29231 ft 506 kts 141°
2026-04-22 01:37 36.85210 -121.61650 29636 ft 509 kts 141°
2026-04-22 01:37 36.82786 -121.58430 30051 ft 511 kts 141°
2026-04-22 01:37 36.80374 -121.55229 30471 ft 511 kts 141°
2026-04-22 01:37 36.77920 -121.51970 31027 ft 507 kts 141°
2026-04-22 01:38 36.75514 -121.48777 31635 ft 502 kts 141°
2026-04-22 01:38 36.73131 -121.45619 32180 ft 498 kts 141°
2026-04-22 01:38 36.70763 -121.42489 32705 ft 494 kts 141°
2026-04-22 01:38 36.68408 -121.39382 33083 ft 495 kts 141°
2026-04-22 01:39 36.63661 -121.33142 33060 ft 499 kts 141°
2026-04-22 01:39 36.58936 -121.26917 33063 ft 491 kts 142°
2026-04-22 01:40 36.54193 -121.20698 33079 ft 503 kts 142°
2026-04-22 01:40 36.50138 -121.15393 33078 ft 514 kts 141°
2026-04-22 01:41 36.45178 -121.08892 33065 ft 522 kts 141°
2026-04-22 01:41 36.40233 -121.02260 33053 ft 524 kts 139°
2026-04-22 01:42 36.35489 -120.95373 33060 ft 526 kts 137°
2026-04-22 01:42 36.30735 -120.88423 33074 ft 529 kts 138°
2026-04-22 01:43 36.25943 -120.81514 33064 ft 528 kts 138°
2026-04-22 01:43 36.21127 -120.74631 33064 ft 528 kts 139°
2026-04-22 01:44 36.16348 -120.67817 33075 ft 525 kts 139°
2026-04-22 01:44 36.11531 -120.60959 33071 ft 524 kts 139°
2026-04-22 01:45 36.06774 -120.54200 33064 ft 523 kts 139°
2026-04-22 01:45 36.02002 -120.47432 33066 ft 521 kts 139°
2026-04-22 01:46 35.97243 -120.40697 33078 ft 520 kts 139°
2026-04-22 01:46 35.92483 -120.33971 33062 ft 520 kts 139°
2026-04-22 01:47 35.87665 -120.27351 33061 ft 513 kts 144°
2026-04-22 01:47 35.84984 -120.24528 33067 ft 501 kts 153°
2026-04-22 01:47 35.82075 -120.22252 33089 ft 493 kts 158°
2026-04-22 01:48 35.76168 -120.17963 33063 ft 492 kts 158°
2026-04-22 01:48 35.70303 -120.13599 33071 ft 493 kts 158°
2026-04-22 01:49 35.64456 -120.09188 33069 ft 492 kts 157°
2026-04-22 01:49 35.58671 -120.04816 33070 ft 491 kts 157°
2026-04-22 01:50 35.52849 -120.00423 33078 ft 490 kts 157°
2026-04-22 01:50 35.47030 -119.96042 33079 ft 491 kts 157°
2026-04-22 01:51 35.41208 -119.91665 33064 ft 490 kts 157°
2026-04-22 01:51 35.35394 -119.87301 33072 ft 490 kts 157°
2026-04-22 01:52 35.29673 -119.83003 33050 ft 468 kts 158°
2026-04-22 01:52 35.24371 -119.78488 32761 ft 467 kts 151°
2026-04-22 01:53 35.21814 -119.76037 32340 ft 463 kts 150°
2026-04-22 01:53 35.19302 -119.73593 31842 ft 460 kts 150°
2026-04-22 01:53 35.16807 -119.71187 31400 ft 456 kts 151°
2026-04-22 01:53 35.14314 -119.68816 30947 ft 452 kts 151°
2026-04-22 01:54 35.11830 -119.66481 30501 ft 448 kts 152°
2026-04-22 01:54 35.09359 -119.64176 30038 ft 445 kts 152°
2026-04-22 01:54 35.06905 -119.61895 29525 ft 442 kts 152°
2026-04-22 01:54 35.04472 -119.59636 29041 ft 438 kts 152°
2026-04-22 01:55 35.02059 -119.57395 28582 ft 433 kts 152°
2026-04-22 01:55 34.99670 -119.55178 28123 ft 429 kts 152°
2026-04-22 01:55 34.97303 -119.52984 27669 ft 426 kts 152°
2026-04-22 01:55 34.94957 -119.50809 27224 ft 423 kts 152°
2026-04-22 01:56 34.92625 -119.48649 26775 ft 420 kts 152°
2026-04-22 01:56 34.90303 -119.46511 26351 ft 416 kts 153°
2026-04-22 01:56 34.87989 -119.44429 25930 ft 412 kts 153°
2026-04-22 01:56 34.85681 -119.42373 25504 ft 409 kts 153°
2026-04-22 01:57 34.83418 -119.40360 25075 ft 407 kts 153°
2026-04-22 01:57 34.81131 -119.38323 24643 ft 405 kts 153°
2026-04-22 01:57 34.78864 -119.36300 24211 ft 404 kts 153°
2026-04-22 01:57 34.76601 -119.34280 23775 ft 402 kts 153°
2026-04-22 01:58 34.74344 -119.32268 23272 ft 402 kts 153°
2026-04-22 01:58 34.72076 -119.30279 22819 ft 404 kts 153°
2026-04-22 01:58 34.69766 -119.28271 22377 ft 411 kts 153°
2026-04-22 01:58 34.67431 -119.26239 21917 ft 414 kts 153°
2026-04-22 01:59 34.65093 -119.24196 21451 ft 412 kts 153°
2026-04-22 01:59 34.62769 -119.22176 21013 ft 408 kts 153°
2026-04-22 01:59 34.60466 -119.20191 20575 ft 405 kts 153°
2026-04-22 01:59 34.58172 -119.18218 20113 ft 403 kts 153°
2026-04-22 02:00 34.55892 -119.16253 19677 ft 400 kts 153°
2026-04-22 02:00 34.53648 -119.14279 19253 ft 399 kts 152°
2026-04-22 02:00 34.51413 -119.12292 18809 ft 398 kts 152°
2026-04-22 02:00 34.49185 -119.10310 18367 ft 397 kts 152°
2026-04-22 02:01 34.46957 -119.08335 17895 ft 394 kts 152°
2026-04-22 02:01 34.44750 -119.06381 17424 ft 391 kts 152°
2026-04-22 02:01 34.42560 -119.04462 16986 ft 386 kts 153°
2026-04-22 02:01 34.40423 -119.02612 16508 ft 383 kts 153°
2026-04-22 02:02 34.38254 -119.00741 16031 ft 380 kts 153°
2026-04-22 02:02 34.36124 -118.98899 15581 ft 375 kts 152°
2026-04-22 02:02 34.34010 -118.97069 15165 ft 371 kts 152°
2026-04-22 02:02 34.31944 -118.95216 14741 ft 368 kts 150°
2026-04-22 02:03 34.29909 -118.93354 14323 ft 364 kts 150°
2026-04-22 02:03 34.27904 -118.91523 13914 ft 360 kts 150°
2026-04-22 02:03 34.25916 -118.89716 13448 ft 356 kts 150°
2026-04-22 02:03 34.23951 -118.87922 13024 ft 352 kts 150°
2026-04-22 02:04 34.20123 -118.84398 12228 ft 337 kts 150°
2026-04-22 02:04 34.18278 -118.82700 12102 ft 330 kts 150°
2026-04-22 02:04 34.16436 -118.81008 11954 ft 338 kts 149°
2026-04-22 02:05 34.14608 -118.79155 11593 ft 347 kts 144°
2026-04-22 02:05 34.12823 -118.77184 11245 ft 348 kts 143°
2026-04-22 02:05 34.11050 -118.75198 10881 ft 348 kts 143°
2026-04-22 02:05 34.09270 -118.73223 10538 ft 346 kts 143°
2026-04-22 02:06 34.07525 -118.71313 10198 ft 331 kts 144°
2026-04-22 02:06 34.05851 -118.69490 9856 ft 318 kts 144°
2026-04-22 02:06 34.04242 -118.67727 9502 ft 307 kts 140°
2026-04-22 02:06 34.03058 -118.65602 9194 ft 309 kts 116°
2026-04-22 02:07 34.02582 -118.63057 8907 ft 314 kts 99°
2026-04-22 02:07 34.02356 -118.60440 8588 ft 312 kts 98°
2026-04-22 02:07 34.02138 -118.57845 8267 ft 310 kts 98°
2026-04-22 02:07 34.01910 -118.55277 7957 ft 307 kts 98°
2026-04-22 02:08 34.01679 -118.52741 7698 ft 302 kts 98°
2026-04-22 02:08 34.01447 -118.50247 7448 ft 298 kts 98°
2026-04-22 02:08 34.01214 -118.47784 7198 ft 292 kts 98°
2026-04-22 02:08 34.01060 -118.45390 6932 ft 281 kts 87°
2026-04-22 02:09 34.01410 -118.43090 6719 ft 270 kts 77°
2026-04-22 02:09 34.01823 -118.40888 6510 ft 268 kts 78°
2026-04-22 02:09 34.02210 -118.38724 6306 ft 261 kts 78°
2026-04-22 02:09 34.02586 -118.36577 5952 ft 262 kts 78°
2026-04-22 02:10 34.02904 -118.34419 5579 ft 261 kts 83°
2026-04-22 02:10 34.03121 -118.32269 5195 ft 255 kts 84°
2026-04-22 02:10 34.03320 -118.30181 4807 ft 245 kts 84°
2026-04-22 02:10 34.03517 -118.28214 4400 ft 235 kts 83°
2026-04-22 02:11 34.03717 -118.26299 4010 ft 226 kts 83°
2026-04-22 02:11 34.03911 -118.24446 3629 ft 220 kts 82°
2026-04-22 02:11 34.04103 -118.22644 3245 ft 214 kts 83°
2026-04-22 02:11 34.04310 -118.20866 2849 ft 215 kts 81°
2026-04-22 02:12 34.04506 -118.19093 2620 ft 210 kts 82°
2026-04-22 02:12 34.04561 -118.17366 2562 ft 205 kts 104°
2026-04-22 02:12 34.03864 -118.15949 2601 ft 197 kts 144°
2026-04-22 02:12 34.02694 -118.15037 2599 ft 205 kts 152°
2026-04-22 02:13 34.01475 -118.14126 2588 ft 207 kts 150°
2026-04-22 02:13 34.00184 -118.13459 2582 ft 199 kts 178°
2026-04-22 02:13 33.98885 -118.13792 2599 ft 189 kts 216°
2026-04-22 02:13 33.97958 -118.14872 2606 ft 186 kts 231°
2026-04-22 02:14 33.97101 -118.16045 2600 ft 186 kts 232°
2026-04-22 02:14 33.96284 -118.17230 2584 ft 181 kts 242°
2026-04-22 02:14 33.95941 -118.18635 2605 ft 175 kts 259°
2026-04-22 02:14 33.95681 -118.20084 2606 ft 177 kts 259°
2026-04-22 02:15 33.95486 -118.21538 2608 ft 175 kts 263°
2026-04-22 02:15 33.95325 -118.22984 2576 ft 173 kts 263°
2026-04-22 02:15 33.95172 -118.24433 2404 ft 174 kts 264°
2026-04-22 02:15 33.95024 -118.25855 2182 ft 167 kts 264°
2026-04-22 02:16 33.94880 -118.27239 1951 ft 165 kts 263°
2026-04-22 02:16 33.94737 -118.28618 1751 ft 166 kts 264°
2026-04-22 02:16 33.94597 -118.29961 1514 ft 156 kts 264°
2026-04-22 02:16 33.94470 -118.31204 1315 ft 142 kts 263°
2026-04-22 02:17 33.94353 -118.32321 1133 ft 129 kts 263°
2026-04-22 02:17 33.94232 -118.33432 948 ft 138 kts 262°
2026-04-22 02:17 33.94115 -118.34574 736 ft 134 kts 263°
2026-04-22 02:17 33.94007 -118.35646 545 ft 126 kts 264°
2026-04-22 02:18 33.93902 -118.36653 398 ft 127 kts 266°
2026-04-22 02:18 33.93803 -118.37709 249 ft 125 kts 263°
2026-04-22 02:18 33.93690 -118.38736 110 ft 120 kts 263°
2026-04-22 02:18 33.93603 -118.39594 109 ft 81 kts 263°
2026-04-22 02:19 33.93564 -118.40072 112 ft 40 kts 272°
2026-04-22 02:19 33.93601 -118.40291 108 ft 19 kts 291°
2026-04-22 02:19 33.93626 -118.40399 105 ft 12 kts 274°
2026-04-22 02:19 33.93619 -118.40498 106 ft 12 kts 264°
2026-04-22 02:20 33.93610 -118.40594 105 ft 11 kts 264°
2026-04-22 02:20 33.93601 -118.40691 105 ft 13 kts 262°
2026-04-22 02:20 33.93597 -118.40800 104 ft 13 kts 279°
2026-04-22 02:20 33.93643 -118.40887 107 ft 13 kts 333°
2026-04-22 02:21 33.93731 -118.40905 105 ft 14 kts 354°
2026-04-22 02:21 33.93837 -118.40918 99 ft 11 kts 357°
2026-04-22 02:21 33.93874 -118.40850 96 ft 11 kts 81°
2026-04-22 02:21 33.93884 -118.40757 99 ft 13 kts 83°
2026-04-22 02:22 33.93895 -118.40644 99 ft 14 kts 83°
2026-04-22 02:22 33.93907 -118.40530 97 ft 13 kts 82°
2026-04-22 02:22 33.93919 -118.40421 97 ft 13 kts 83°
2026-04-22 02:22 33.93926 -118.40349 99 ft 13 kts 83°
2026-04-22 02:23 33.93937 -118.40245 100 ft 12 kts 82°
2026-04-22 02:23 33.93947 -118.40143 97 ft 12 kts 83°
2026-04-22 02:23 33.93981 -118.40061 96 ft 12 kts 12°
2026-04-22 02:23 33.94068 -118.40072 95 ft 13 kts 354°
2026-04-22 02:24 33.94146 -118.40084 95 ft 0 kts 353°
2026-04-22 02:24 33.94157 -118.40079 94 ft 4 kts 32°
2026-04-22 02:24 33.94160 -118.40037 94 ft 5 kts 92°
2026-04-22 02:24 33.94160 -118.40027 94 ft 0 kts 91°
2026-04-22 02:25 33.94159 -118.40021 94 ft 1 kts 92°
2026-04-22 02:25 33.94159 -118.40020 94 ft 0 kts 92°